This is the latest recevied weather packets stored in our database for station/object W8CWV-13. If no packets are shown the sender has not sent any weather packets the latest 10 day(s).
| Time | Temp. | Humidity | Pressure | Rain* | Wind** | Luminosity | Snow |
|---|---|---|---|---|---|---|---|
| 1777880200 | 5° C | 100% | 1024.2 hPa | - | - | - | - |
| 1777879630 | 5° C | 100% | 1024.5 hPa | - | - | - | - |
| 1777879054 | 5° C | 100% | 1024.6 hPa | - | - | - | - |
| 1777878487 | 5° C | 100% | 1024.4 hPa | - | - | - | - |
| 1777877910 | 5° C | 100% | 1024.6 hPa | - | - | - | - |
| 1777877333 | 5° C | 100% | 1024.6 hPa | - | - | - | - |
| 1777876761 | 4.44° C | 100% | 1024.4 hPa | - | - | - | - |
| 1777876187 | 3.89° C | 100% | 1024.3 hPa | - | - | - | - |
| 1777875615 | 3.89° C | 100% | 1024 hPa | - | - | - | - |
| 1777875035 | 2.78° C | 100% | 1023.8 hPa | - | - | - | - |
| 1777874464 | 2.78° C | 100% | 1024.2 hPa | - | - | - | - |
| 1777873895 | 2.78° C | 100% | 1024.4 hPa | - | - | - | - |
| 1777873328 | 3.33° C | 100% | 1024.7 hPa | - | - | - | - |
| 1777872746 | 3.33° C | 100% | 1025.1 hPa | - | - | - | - |
| 1777872176 | 3.33° C | 100% | 1025.2 hPa | - | - | - | - |
| 1777871604 | 3.89° C | 100% | 1025.1 hPa | - | - | - | - |
| 1777871033 | 3.33° C | 100% | 1025.2 hPa | - | - | - | - |
| 1777870461 | 3.89° C | 100% | 1025.2 hPa | - | - | - | - |
| 1777869884 | 4.44° C | 100% | 1025.2 hPa | - | - | - | - |
| 1777869315 | 4.44° C | 100% | 1025.3 hPa | - | - | - | - |
| 1777868741 | 4.44° C | 100% | 1025 hPa | - | - | - | - |
| 1777868169 | 4.44° C | 100% | 1024.9 hPa | - | - | - | - |
| 1777867603 | 4.44° C | 100% | 1024.8 hPa | - | - | - | - |
| 1777867022 | 5° C | 100% | 1024.8 hPa | - | - | - | - |
| 1777866459 | 5° C | 100% | 1024.8 hPa | - | - | - | - |
* Rain since midnight (hover to see other rain measurements)
** Current wind speed in m/s (hover to see current wind gust speed)